, TX

(GMT )
Boomvang

Weather History for KVAF - February, 2014

Change the Weather History Date:

Wednesday, February 19, 2014

  Actual Average Record
Temperature  
Mean Temperature 70 °F -  
Max Temperature 71 °F - - ()
Min Temperature 69 °F - - ()
Cooling Degree Days 5    
Growing Degree Days 20 (Base 50)    
Moisture  
Dew Point 68 °F    
Average Humidity 91    
Maximum Humidity 100    
Minimum Humidity 83    
Precipitation  
Precipitation 0.00 in - - ()
Sea Level Pressure  
Sea Level Pressure 29.95 in    
Wind  
Wind Speed 16 mph (South)    
Max Wind Speed 24 mph    
Max Gust Speed -    
Visibility 8 miles    
Events      
Averages and records for this station are not official NWS values.
T = Trace of Precipitation, MM = Missing Value Source: NWS Daily Summary

Daily Weather History Graph

Daily Weather History Graph

Search for Another Location

Airport or City:

Trip Planner

Search our weather history database for the weather conditions in past years. The results will help you decide how hot, cold, wet, or windy it might be!

Date:

Astronomy

Feb. 19, 2014 Rise Set
Actual Time 6:51 AM CST 6:12 PM CST
Civil Twilight 6:28 AM CST 6:36 PM CST
Nautical Twilight 6:01 AM CST 7:03 PM CST
Astronomical Twilight 5:33 AM CST 7:31 PM CST
Moon 10:37 PM CST (2/19) 9:25 AM CST (2/19)
Length of Visible Light 12h 08m
Length of Day
11h 21m
Waning Gibbous, 79% of the Moon is Illuminated
Feb 19
Waning Gibbous
Feb 22
Last Quarter
Mar 1
New
Mar 8
First Quarter
Mar 16
Full

Hourly Weather History & Observations

Time (CST) Temp. Dew Point Humidity Pressure Visibility Wind Dir Wind Speed Gust Speed Precip Events Conditions
12:15 AM 69.8 °F 69.8 °F 100% 30.01 in 7.0 mi South 16.1 mph - N/A   Scattered Clouds
12:35 AM 69.8 °F 69.8 °F 100% 30.01 in 8.0 mi South 15.0 mph - N/A   Mostly Cloudy
12:55 AM 69.8 °F 69.8 °F 100% 30.01 in 8.0 mi South 17.3 mph - N/A   Mostly Cloudy
1:15 AM 69.8 °F 69.8 °F 100% 30.01 in 7.0 mi SSW 18.4 mph - N/A   Scattered Clouds
1:35 AM 69.8 °F 69.8 °F 100% 30.00 in 7.0 mi South 18.4 mph - N/A   Scattered Clouds
1:55 AM 69.8 °F 69.8 °F 100% 30.00 in 7.0 mi SSW 17.3 mph - N/A   Partly Cloudy
2:15 AM 69.8 °F 69.8 °F 100% 29.99 in 8.0 mi SSW 17.3 mph - N/A   Scattered Clouds
2:35 AM 69.8 °F 69.8 °F 100% 29.98 in 8.0 mi SSW 18.4 mph - N/A   Partly Cloudy
2:55 AM 69.8 °F 68.0 °F 94% 29.97 in 9.0 mi SSW 20.7 mph - N/A   Clear
3:15 AM 69.8 °F 68.0 °F 94% 29.98 in 8.0 mi SSW 19.6 mph - N/A   Clear
3:35 AM 69.8 °F 68.0 °F 94% 29.97 in 7.0 mi SSW 20.7 mph - N/A   Clear
3:55 AM 69.8 °F 68.0 °F 94% 29.96 in 7.0 mi SSW 18.4 mph - N/A   Clear
4:15 AM 69.8 °F 68.0 °F 94% 29.97 in 7.0 mi SSW 13.8 mph - N/A   Clear
4:35 AM 69.8 °F 68.0 °F 94% 29.97 in 7.0 mi SSW 15.0 mph - N/A   Clear
4:55 AM 69.8 °F 68.0 °F 94% 29.97 in 8.0 mi SSW 15.0 mph - N/A   Clear
5:15 AM 69.8 °F 68.0 °F 94% 29.97 in 9.0 mi SSW 13.8 mph - N/A   Clear
5:35 AM 69.8 °F 68.0 °F 94% 29.98 in 10.0 mi SSW 13.8 mph - N/A   Clear
5:55 AM 69.8 °F 68.0 °F 94% 29.98 in 10.0 mi SSW 15.0 mph - N/A   Clear
6:15 AM 69.8 °F 68.0 °F 94% 29.98 in 10.0 mi SSW 13.8 mph - N/A   Clear
6:35 AM 69.8 °F 68.0 °F 94% 29.99 in 10.0 mi SSW 13.8 mph - N/A   Clear
6:55 AM 69.8 °F 68.0 °F 94% 29.99 in 8.0 mi South 16.1 mph - N/A   Clear
7:15 AM 69.8 °F 68.0 °F 94% 30.00 in 9.0 mi South 15.0 mph - N/A   Clear
7:35 AM 69.8 °F 68.0 °F 94% 30.00 in 10.0 mi South 15.0 mph - N/A   Clear
7:55 AM 69.8 °F 68.0 °F 94% 30.00 in 10.0 mi South 12.7 mph - N/A   Clear
8:15 AM 71.6 °F 68.0 °F 88% 30.01 in 10.0 mi South 15.0 mph - N/A   Clear
8:35 AM 71.6 °F 66.2 °F 83% 30.01 in 10.0 mi SSE 12.7 mph - N/A   Clear
8:55 AM 71.6 °F 66.2 °F 83% 30.01 in 10.0 mi SSE 13.8 mph - N/A   Clear
9:15 AM 71.6 °F 66.2 °F 83% 30.01 in 10.0 mi SSE 15.0 mph - N/A   Clear
9:35 AM 71.6 °F 66.2 °F 83% 30.02 in 10.0 mi SSE 12.7 mph - N/A   Clear
9:55 AM 71.6 °F 68.0 °F 88% 30.01 in 10.0 mi SSE 13.8 mph - N/A   Clear
10:15 AM 71.6 °F 66.2 °F 83% 30.02 in 10.0 mi SSE 13.8 mph - N/A   Clear
10:35 AM 71.6 °F 66.2 °F 83% 30.02 in 10.0 mi SSE 12.7 mph - N/A   Clear
10:55 AM 71.6 °F 66.2 °F 83% 30.02 in 10.0 mi SSE 12.7 mph - N/A   Clear
11:15 AM 71.6 °F 66.2 °F 83% 30.01 in 10.0 mi SSE 11.5 mph - N/A   Clear
11:35 AM 71.6 °F 66.2 °F 83% 30.00 in 10.0 mi SSE 11.5 mph - N/A   Clear
11:55 AM 71.6 °F 66.2 °F 83% 30.00 in 10.0 mi South 10.4 mph - N/A   Clear
12:15 PM 71.6 °F 66.2 °F 83% 29.99 in - SSE 10.4 mph - N/A   Clear
12:35 PM 71.6 °F 66.2 °F 83% 29.97 in 10.0 mi SSE 12.7 mph - N/A   Clear
12:55 PM 71.6 °F 66.2 °F 83% 29.95 in 10.0 mi South 15.0 mph - N/A   Clear
1:15 PM 71.6 °F 66.2 °F 83% 29.94 in 10.0 mi South 13.8 mph - N/A   Clear
1:35 PM 71.6 °F 66.2 °F 83% 29.93 in 10.0 mi SSE 13.8 mph - N/A   Clear
1:55 PM 71.6 °F 66.2 °F 83% 29.93 in 10.0 mi SSE 15.0 mph - N/A   Clear
2:15 PM 71.6 °F 66.2 °F 83% 29.92 in 10.0 mi SSE 13.8 mph - N/A   Clear
2:35 PM 71.6 °F 68.0 °F 88% 29.92 in 10.0 mi SSE 13.8 mph - N/A   Clear
2:55 PM 71.6 °F 68.0 °F 88% 29.91 in 9.0 mi SSE 11.5 mph - N/A   Clear
3:15 PM 71.6 °F 68.0 °F 88% 29.91 in 7.0 mi SSE 10.4 mph - N/A   Scattered Clouds
3:35 PM 71.6 °F 68.0 °F 88% 29.91 in 7.0 mi SSE 10.4 mph - N/A   Partly Cloudy
3:55 PM 71.6 °F 68.0 °F 88% 29.90 in 7.0 mi SSE 10.4 mph - N/A   Scattered Clouds
4:15 PM 71.6 °F 68.0 °F 88% 29.90 in 6.0 mi SSE 11.5 mph - N/A   Partly Cloudy
4:35 PM 71.6 °F 68.0 °F 88% 29.89 in 6.0 mi SSE 12.7 mph - N/A   Partly Cloudy
4:55 PM 71.6 °F 68.0 °F 88% 29.89 in 6.0 mi SSE 13.8 mph - N/A   Clear
5:15 PM 71.6 °F 68.0 °F 88% 29.89 in 6.0 mi SE 15.0 mph - N/A   Clear
5:35 PM 71.6 °F 68.0 °F 88% 29.89 in 6.0 mi SE 15.0 mph - N/A   Clear
5:55 PM 71.6 °F 68.0 °F 88% 29.89 in 6.0 mi SE 16.1 mph - N/A   Clear
6:15 PM 71.6 °F 68.0 °F 88% 29.88 in 7.0 mi SSE 17.3 mph - N/A   Clear
6:35 PM 71.6 °F 69.8 °F 94% 29.88 in 6.0 mi SSE 17.3 mph - N/A   Clear
6:55 PM 71.6 °F 69.8 °F 94% 29.88 in 7.0 mi SSE 18.4 mph - N/A   Partly Cloudy
7:15 PM 71.6 °F 69.8 °F 94% 29.88 in 6.0 mi SSE 18.4 mph - N/A   Mostly Cloudy
7:35 PM 71.6 °F 69.8 °F 94% 29.88 in 5.0 mi SSE 17.3 mph - N/A   Scattered Clouds
7:55 PM 71.6 °F 69.8 °F 94% 29.89 in 5.0 mi SSE 17.3 mph - N/A   Partly Cloudy
8:15 PM 71.6 °F 69.8 °F 94% 29.88 in 5.0 mi SSE 17.3 mph - N/A   Partly Cloudy
8:35 PM 71.6 °F 69.8 °F 94% 29.89 in 5.0 mi SSE 18.4 mph - N/A   Mostly Cloudy
8:55 PM 71.6 °F 69.8 °F 94% 29.89 in 4.0 mi South 16.1 mph - N/A   Mostly Cloudy
9:15 PM 71.6 °F 69.8 °F 94% 29.89 in 5.0 mi South 18.4 mph - N/A   Scattered Clouds
9:35 PM 71.6 °F 69.8 °F 94% 29.89 in 5.0 mi South 18.4 mph - N/A   Scattered Clouds
9:55 PM 71.6 °F 69.8 °F 94% 29.89 in 5.0 mi South 20.7 mph - N/A   Mostly Cloudy
10:15 PM 71.6 °F 69.8 °F 94% 29.89 in 4.0 mi South 18.4 mph - N/A   Overcast
10:35 PM 71.6 °F 69.8 °F 94% 29.89 in 4.0 mi South 17.3 mph - N/A   Overcast
10:55 PM 71.6 °F 69.8 °F 94% 29.88 in 5.0 mi South 18.4 mph - N/A   Overcast
11:15 PM 71.6 °F 69.8 °F 94% 29.87 in 5.0 mi South 20.7 mph - N/A   Mostly Cloudy
11:35 PM 71.6 °F 69.8 °F 94% 29.86 in 5.0 mi SSW 24.2 mph - N/A   Mostly Cloudy
11:55 PM 71.6 °F 69.8 °F 94% 29.86 in 4.0 mi South 24.2 mph - N/A   Mostly Cloudy